ROMMA est une association bénévole à but non lucratif. Votre soutien est indispensable : ADHERER à ROMMA ou FAIRE un DON

Eygliers - (05, Hautes-Alpes)

Guillestrois (965 m)   Longitude: 6° 38' 04" E   Latitude: 44° 40' 37" N Station partenaire n°53
 

Détail journalier du     <<     >>

Température Precipitation Humidité Vent Dir Rafale Dir. rafale Ensol.
Heure (°C) (mm) (%) (km/h) (km/h) (min)
01:00 0.30795E19ESE0
02:00 0.00833N15NNO0
03:00 -0.40862ESE8E0
04:00 -0.30843NNE6ESE0
05:00 -0.70844NNE8N0
06:00 -0.50834ENE10NNO0
07:00 -0.50824NNE11ENE0
08:00 -0.30822ENE6E0
09:00 0.60774N8NNO0
10:00 1.80713N10NNO5
11:00 3.00703NO11NO0
12:00 3.80625NO13ONO5
13:00 4.70564NO11NO20
14:00 5.40585ESE13S10
15:00 5.60565ESE13ESE0
16:00 5.70552S15NO15
17:00 4.70622NNO8N10
18:00 3.50664N8N0
19:00 3.10673ENE11ENE0
20:00 2.40715ENE11ENE0
21:00 1.50736E10E0
22:00 1.60743E10E0
23:00 2.20733ENE6NNE0
minuit 2.80695E23E0

Graphique du 20-11-2018

 

Serveur OMMA